User: anonymous   Login
Location: Betra
(48.4113°N, 8.6634°E)
Time: 07:37:31
(UTC+00:00)
Language:

CZ-2C R/B - Orbit

View from above orbital plane
View from above orbital plane
View from above satellite
View from above satellite

Ground track
Ground track

The orbit data is extracted from the following two-line orbital elements,

1 28480U 04046B   24201.84812567  .00000476  00000-0  19275-3 0  9990
2 28480  98.1630 143.8844 0141585 122.4627 239.0334 14.26405234 23258
Epoch (UTC): 19 July 2024 20:21:18
Eccentricity: 0.0141585
inclination: 98.1630°
perigee height: 702 km
apogee height: 905 km
right ascension of ascending node: 143.8844°
argument of perigee: 122.4627°
revolutions per day: 14.26405234
mean anomaly at epoch: 239.0334°
orbit number at epoch: 2325

The dashed part of the orbit path shows where the satellite is in the earth's shadow,  

DLR